Weather History for KROA - September, 2013

Change the Weather History Date:

Friday, September 6, 2013

  Actual Average Record
Temperature  
Mean Temperature 68 °F 72 °F  
Max Temperature 78 °F 82 °F 99 °F (1954)
Min Temperature 58 °F 61 °F 37 °F (1924)
Degree Days  
Heating Degree Days 0 0  
Month to date heating degree days 0 0  
Since 1 July heating degree days 1 1  
Cooling Degree Days 3 7  
Month to date cooling degree days 54 45  
Year to date cooling degree days 1114 1092  
Growing Degree Days 20 (Base 50)    
Moisture  
Dew Point 55 °F    
Average Humidity 65    
Maximum Humidity 90    
Minimum Humidity 40    
Precipitation  
Precipitation 0.00 in 0.14 in 2.37 in (1996)
Month to date precipitation T 0.82  
Year to date precipitation 42.31 28.95  
Snow  
Snow 0.00 in - - ()
Month to date snowfall 0.0  
Since 1 July snowfall 0.0  
Since 1 September snowfall 0.0  
Snow Depth 0.00 in    
Sea Level Pressure  
Sea Level Pressure 30.18 in    
Wind  
Wind Speed 4 mph (East)    
Max Wind Speed 12 mph    
Max Gust Speed 15 mph    
Visibility 10 miles    
Events      
T = Trace of Precipitation, MM = Missing Value Source: NWS Daily Summary

Daily Weather History Graph

Daily Weather History Graph

Search for Another Location

Airport or City:

Trip Planner

Search our weather history database for the weather conditions in past years. The results will help you decide how hot, cold, wet, or windy it might be!

Date:

Astronomy

Sep. 06, 2013 Rise Set
Actual Time 6:54 AM EDT 7:40 PM EDT
Civil Twilight 6:28 AM EDT 8:07 PM EDT
Nautical Twilight 5:56 AM EDT 8:38 PM EDT
Astronomical Twilight 5:24 AM EDT 9:10 PM EDT
Moon 8:02 AM EDT (9/6) 8:07 PM EDT (9/6)
Length of Visible Light 13h 39m
Length of Day
12h 46m
New Moon, 1% of the Moon is Illuminated
Sep 6
New Moon
Sep 12
First Quarter
Sep 19
Full
Sep 26
Last Quarter
Oct 4
New

Hourly Weather History & Observations

Time (EDT) Temp. Dew Point Humidity Pressure Visibility Wind Dir Wind Speed Gust Speed Precip Events Conditions
12:54 AM 64.0 °F 59.0 °F 84% 30.17 in 10.0 mi Calm Calm - N/A   Clear
1:54 AM 63.0 °F 59.0 °F 87% 30.17 in 10.0 mi NW 3.5 mph - N/A   Clear
2:54 AM 62.1 °F 59.0 °F 90% 30.15 in 10.0 mi NW 4.6 mph - N/A   Clear
3:54 AM 64.0 °F 59.0 °F 84% 30.16 in 10.0 mi Calm Calm - N/A   Clear
4:54 AM 62.1 °F 59.0 °F 90% 30.17 in 10.0 mi Calm Calm - N/A   Scattered Clouds
5:54 AM 62.1 °F 59.0 °F 90% 30.18 in 10.0 mi Calm Calm - N/A   Partly Cloudy
6:54 AM 62.1 °F 59.0 °F 90% 30.20 in 10.0 mi Calm Calm - N/A   Overcast
7:54 AM 64.0 °F 57.0 °F 78% 30.22 in 10.0 mi NNE 6.9 mph - N/A   Overcast
8:54 AM 64.9 °F 54.0 °F 68% 30.24 in 10.0 mi NNE 10.4 mph - N/A   Overcast
9:54 AM 66.9 °F 52.0 °F 59% 30.24 in 10.0 mi NNE 5.8 mph - N/A   Overcast
10:54 AM 71.1 °F 54.0 °F 55% 30.25 in 10.0 mi Variable 4.6 mph - N/A   Mostly Cloudy
11:54 AM 70.0 °F 55.9 °F 61% 30.24 in 10.0 mi SE 6.9 mph - N/A   Overcast
12:54 PM 71.1 °F 55.9 °F 59% 30.23 in 10.0 mi Variable 5.8 mph - N/A   Mostly Cloudy
1:54 PM 73.9 °F 54.0 °F 50% 30.21 in 10.0 mi East 9.2 mph - N/A   Scattered Clouds
2:54 PM 75.0 °F 51.1 °F 43% 30.18 in 10.0 mi Calm Calm - N/A   Partly Cloudy
3:54 PM 75.9 °F 51.1 °F 42% 30.16 in 10.0 mi South 5.8 mph - N/A   Partly Cloudy
4:54 PM 77.0 °F 52.0 °F 42% 30.15 in 10.0 mi Variable 5.8 mph - N/A   Partly Cloudy
5:54 PM 75.0 °F 53.1 °F 46% 30.14 in 10.0 mi SSE 10.4 mph - N/A   Partly Cloudy
6:54 PM 73.0 °F 52.0 °F 48% 30.14 in 10.0 mi ESE 9.2 mph - N/A   Clear
7:54 PM 68.0 °F 54.0 °F 61% 30.15 in 10.0 mi SSE 5.8 mph - N/A   Clear
8:54 PM 68.0 °F 54.0 °F 61% 30.16 in 10.0 mi Calm Calm - N/A   Clear
9:54 PM 66.0 °F 55.0 °F 68% 30.17 in 10.0 mi Calm Calm - N/A   Clear
10:54 PM 62.1 °F 55.9 °F 80% 30.17 in 10.0 mi Calm Calm - N/A   Clear
11:54 PM 63.0 °F 55.9 °F 78% 30.17 in 10.0 mi Calm Calm - N/A   Clear